* Astronomy

Members Login
Username 
 
Password 
    Remember Me  
Post Info
TOPIC: Asteroid 2010 KK37


L

Posts: 131433
Date:
RE: Asteroid 2010 KK37
Permalink  
 


Update:
The 19 - 43 metre wide asteroid 2010 KK37 will make a close pass (2.3 lunar distances, 0.0058 AU), travelling at 10.94 km/second, to the Earth-Moon system on the 19th May, 2012 @ 10:36 UT ±1 day 03:50.

See more

The Lunar Distance (LD), the distance between Earth and the Moon, equals 384,401 km, (or 0.00256 AU).



__________________


New

Posts: 1
Date:
Permalink  
 

Thanks - I'd been wondering where KK37 had gone to.
Has anyone actually observed this object since 2010?

__________________


L

Posts: 131433
Date:
Permalink  
 

Google earth file: Asteroid 2010 KK37.kmz (18kb, kmz)



__________________


L

Posts: 131433
Date:
Permalink  
 

Update:
The 20 - 45 metre wide asteroid 2010 KK37 will make a close pass (0.0058 AU), travelling at 10.93 km/second, to the Earth-Moon system on the 19th May, 2012 @ 10:36 UT ±1 day 03:50.

See more

The Lunar Distance (LD), the distance between Earth and the Moon, equals 384,401 km, (or 0.00256 AU).



__________________


L

Posts: 131433
Date:
Permalink  
 

The 20 - 45 metre wide asteroid 2010 KK37 will make a close pass (0.0031 AU), travelling at 11.18 km/second, to the Earth-Moon system on the 19th May, 2012 @ 23:01 UT ±1 day 07:42.

See more

The Lunar Distance (LD), the distance between Earth and the Moon, equals 384,401 km, (or 0.00256 AU).



__________________


L

Posts: 131433
Date:
Permalink  
 

Update
The 20 - 45 metre wide asteroid 2010 KK37 made a close pass (2.0 lunar distances, 0.0051 AU), travelling at 11.25 km/second, to the Earth-Moon system on the 21st May, 2010.
The asteroid was discovered by the Mt. Lemmon Survey on the 23rd May, 2010.

See more

The Lunar Distance (LD), the distance between Earth and the Moon, equals 384,401 km, (or 0.00256 AU).







__________________


L

Posts: 131433
Date:
Permalink  
 

The 20 - 50 metre wide asteroid 2010 KK37 made a close pass to the Earth on the 21st May, 2010.
The asteroid was discovered by the Mt. Lemmon Survey on the 23rd May, 2010.

See more


__________________


L

Posts: 131433
Date:
Permalink  
 

Orbital elements:
2010 KK37 Earth MOID = 0.0002 AU
Epoch 2010 July 23.0 TT = JDT 2455400.5 MPC
M 51.76981 (2000.0) P Q
n 0.49401825 Peri. 305.85718 -0.98733054 +0.08317374
a 1.5847985 Node 239.27388 -0.03609854 -0.94701959
e 0.4431088 Incl. 9.04437 -0.15451634 -0.31021932
P 2.00 H 25.6 G 0.15 U 6

MPEC 2010 - K46


__________________
Page 1 of 1  sorted by
 
Quick Reply

Please log in to post quick replies.



Create your own FREE Forum
Report Abuse
Powered by ActiveBoard